Location: Unspecified
(51.0950°N, 12.9690°E)
Time: 16:42:10
(UTC+00:00)

Cosmos 1908 - Pass Details

Date: 28 October 2021
Orbit: 509 x 528 km, 82.5° (Epoch: 02 December)

Event Time Altitude Azimuth Distance (km) Brightness Sun altitude
Rises 16:29:11 0° 200° (SSW) 2,643 7.3 -6.8°
Reaches altitude 10° 16:31:22 10° 205° (SSW) 1,756 6.5 -7.2°
Maximum altitude 16:35:08 54° 283° (WNW) 640 4.1 -7.8°
Drops below altitude 10° 16:38:56 10° 2° (N) 1,760 5.8 -8.3°
Sets 16:41:07 0° 7° (N) 2,649 6.6 -8.7°
